Hourly Weather Roundup
Issued by NWS Central Illinois

Home | Current Version | Previous Version | Text Only | Print | Product List | Glossary On
Versions: 1 2 3 4 5 6 7 8 9 10 11 12 13 14 15 16 17 18 19 20 21 22 23 24 25 26 27 28 29 30 31 32 33 34 35 36 37 38 39 40 41 42 43 44 45 46 47 48 49 50
000
NZUS43 KILX 080010
HWRILX

AREA WEATHER ROUNDUP
NATIONAL WEATHER SERVICE, LINCOLN IL
700 PM CDT TUE JUL 07 2015


CITY           SKY/WX    TMP DP  RH WIND       PRES   REMARKS
BLOOMINGTON    PTSUNNY   69  59  70 E8        30.04S
6HR MIN TEMP:  67; 6HR MAX TEMP:  72;

CHAMPAIGN      CLOUDY    67  53  61 NE13G20   30.03S
6HR MIN TEMP:  61; 6HR MAX TEMP:  70; 6HR PCP:  0.01;

DANVILLE       RAIN      65  52  63 N12G18    30.00S
6HR MIN TEMP:  61; 6HR MAX TEMP:  67;

DECATUR        CLOUDY    68  56  65 NE12      30.02S
6HR MIN TEMP:  63; 6HR MAX TEMP:  71; 6HR PCP:  0.01;

EFFINGHAM      CLOUDY    65  59  78 N5        30.02S
FLORA          CLOUDY    67  62  86 N9        30.00S
6HR MIN TEMP:  66; 6HR MAX TEMP:  81; 6HR PCP:  0.01;

GALESBURG      PTSUNNY   69  57  66 N8        30.05R
JACKSONVILLE   PTSUNNY   71  62  73 NE6       30.03R
6HR MIN TEMP:  66; 6HR MAX TEMP:  73;

LACON          PTSUNNY   69  56  64 NE3       30.03S HAZE
6HR MIN TEMP:  67; 6HR MAX TEMP:  73;

LAWRENCEVILLE  CLOUDY    68  50  53 N8        29.99R
6HR MIN TEMP:  68; 6HR MAX TEMP:  80; 6HR PCP:  1.21;

LITCHFIELD     CLOUDY    66  60  80 NE7       30.02R
$$


CITY           SKY/WX    TMP DP  RH WIND       PRES   REMARKS
LINCOLN        PTSUNNY   70  60  69 NE5       30.03R
6HR MIN TEMP:  67; 6HR MAX TEMP:  73;

MACOMB         PTSUNNY   70  61  72 NE6       30.05S HAZE
MATTOON        CLOUDY    66  60  81 NE9       30.01S
6HR MIN TEMP:  63; 6HR MAX TEMP:  71; 6HR PCP:  0.01;

MT CARMEL AP   LGT RAIN  70  66  88 N9        29.98S
OLNEY-NOBLE AP CLOUDY    66  63  88 N7        30.00R
PARIS          CLOUDY    66  60  79 N6        30.02S
6HR MIN TEMP:  63; 6HR MAX TEMP:  69; 6HR PCP:  0.05;

PEORIA         PTSUNNY   72  58  61 NE8       30.03S HAZE
6HR MIN TEMP:  65; 6HR MAX TEMP:  76; 6HR PCP: TRACE;

PONTIAC        CLOUDY    69  58  66 NE8       30.05R
RANTOUL        MOSUNNY   67  52  58 NE8       30.03S
6HR MIN TEMP:  62; 6HR MAX TEMP:  71;

ROBINSON       CLOUDY    67  64  88 NE7       30.01R
6HR MIN TEMP:  67; 6HR MAX TEMP:  75; 6HR PCP:  0.04;

SPRINGFIELD    CLOUDY    72  61  68 NE8       30.02S
6HR MIN TEMP:  67; 6HR MAX TEMP:  73;

TAYLORVILLE    CLOUDY    68  59  73 NE6       30.02S
$$

...REGIONAL REPORTS...


CITY           SKY/WX    TMP DP  RH WIND       PRES   REMARKS
CHICAGO O`HARE MOSUNNY   63  46  54 NE13      30.07R
KANKAKEE       MOSUNNY   64  51  62 N10G16    30.06R
MOLINE         MOSUNNY   70  53  54 NE6       30.05R HAZE
MOUNT STERLING NOT AVBL
MOUNT VERNON   CLOUDY    68  63  83 N8        29.99R
PITTSFIELD     PTSUNNY   70  62  75 NE7       30.04S
QUINCY         PTSUNNY   71  60  68 NE7       30.03S HAZE
ROCKFORD       PTSUNNY   69  51  52 N12       30.07S
$$


CITY           SKY/WX    TMP DP  RH WIND       PRES   REMARKS
BURLINGTON     PTSUNNY   70  58  65 N8        30.04S HAZE
CEDAR RAPIDS   MOSUNNY   69  53  56 NE10      30.07
DES MOINES     PTSUNNY   71  50  47 NE10      30.08S
KIRKSVILLE     CLOUDY    72  59  63 NE9       30.05F
OTTUMWA        PTSUNNY   70  55  59 N8        30.05S
ST LOUIS       CLOUDY    68  63  84 NE7       30.02R
$$


CITY           SKY/WX    TMP DP  RH WIND       PRES   REMARKS
TERRE HAUTE    CLOUDY    65  61  87 N9        30.00S
EVANSVILLE     PTSUNNY   77  74  90 SW5       29.97R
INDIANAPOLIS   CLOUDY    67  60  78 NW7       29.99R
LAFAYETTE      PTSUNNY   64  48  56 N13G21    30.02R
MADISON        PTSUNNY   66  50  56 NE6       30.08R
MILWAUKEE      MOSUNNY   60  48  64 NE10      30.09R
$$




USA.gov is the U.S. government's official web portal to all federal, state and local government web resources and services.